Hourly Data Report for February 18, 2019

TORONTO INTL A
ONTARIO
Current Station Operator: NAVCAN

43°40'36.000" N
79°37'50.000" W
173.40 m
6158731
71624
YYZ

Download Data

Hourly Data (February 2019)
Hourly Data Report for February 18, 2019
TIME
LST
Temp Definition
°C
Dew Point Definition
°C
Rel Hum Definition
%
Precip. Amount Definition
mm

Wind Dir Definition
10's deg

Wind Spd Definition
km/h
Visibility Definition
km
Stn Press Definition
kPa
Hmdx Definition


Wind Chill Definition


Weather Definition


00:00 -7.8 -14.5 59   5 19 19.3 99.13   -15 Snow
01:00 -8.5 -13.8 66   2 21 3.2 99.14   -16 Snow
02:00 -8.5 -13.0 70   1 14 6.4 99.17   -15 Snow
03:00 -8.8 -13.0 72   2 24 9.7 99.13   -17 Snow
04:00 -9.2 -13.2 73   1 23 9.7 99.15   -17 Snow
05:00 -9.6 -13.3 75   1 23 3.2 99.21   -18 Snow
06:00 -9.6 -13.1 76   36 22 4.8 99.28   -18 Snow
07:00 -9.7 -13.0 77   36 22 3.2 99.39   -18 Snow,Blowing Snow
08:00 -9.5 -12.7 78   34 19 2.4 99.52   -17 Snow,Blowing Snow
09:00 -9.3 -12.6 77   36 24 2.4 99.66   -18 Snow,Blowing Snow
10:00 -8.8 -12.1 77   36 19 3.2 99.76   -16 Snow,Blowing Snow
11:00 -7.8 -11.5 75   35 20 24.1 99.85   -15 Blowing Snow
12:00 -7.0 -11.7 70   33 24 24.1 99.96   -15 LegendNANA
13:00 -6.6 -12.1 65   33 20 24.1 100.00   -14 Mainly Clear
14:00 -5.8 -12.3 60   33 26 24.1 100.06   -14 LegendNANA
15:00 -6.1 -13.6 55   35 27 24.1 100.17   -14 LegendNANA
16:00 -6.3 -14.2 54   36 24 24.1 100.25   -14 Mainly Clear
17:00 -6.9 -15.2 52   35 21 24.1 100.36   -14 LegendNANA
18:00 -8.4 -15.7 56   35 22 24.1 100.51   -16 LegendNANA
19:00 -9.5 -15.8 60   35 16 24.1 100.68   -16 Mainly Clear
20:00 -10.1 -16.1 62   33 24 24.1 100.81   -19 LegendNANA
21:00 -11.1 -17.1 62   32 22 24.1 100.93   -20 LegendNANA
22:00 -11.8 -17.6 63   32 22 24.1 101.00   -21 Clear
23:00 -12.4 -18.1 63   29 13 24.1 101.05   -19 LegendNANA

Notes on Data Quality.

Legend

  • E = Estimated
  • M = Missing
  • NA = Not Available*
  • [empty] = Indicates an unobserved value
Date modified: